| time (UTC) | temp C | wind direction | speed KPH | gust KPH | rain 1hr cm | rain 24hr cm | rain mn cm | humidity % | barometer mb |
| 20260502170156 | 22 | 71 | 0.0 | 0.0 | 0.00 | 0.00 | 0.00 | 57 | 1011.1 |
| 20260502164142 | 21 | 65 | 0.0 | 1.6 | 0.00 | 0.00 | 0.00 | 61 | 1011.1 |
| 20260502163638 | 20 | 45 | 1.6 | 1.6 | 0.00 | 0.00 | 0.00 | 63 | 1011.3 |
| 20260502163135 | 20 | 357 | 0.0 | 1.6 | 0.00 | 0.00 | 0.00 | 65 | 1011.3 |
| 20260502162632 | 20 | 30 | 1.6 | 3.2 | 0.00 | 0.00 | 0.00 | 64 | 1011.4 |
| 20260502162129 | 20 | 40 | 1.6 | 1.6 | 0.00 | 0.00 | 0.00 | 64 | 1011.4 |
| 20260502161626 | 19 | 41 | 0.0 | 0.0 | 0.00 | 0.00 | 0.00 | 66 | 1011.4 |
| 20260502161123 | 19 | 348 | 0.0 | 0.0 | 0.00 | 0.00 | 0.00 | 67 | 1011.2 |
| 20260502160621 | 18 | 31 | 0.0 | 1.6 | 0.00 | 0.00 | 0.00 | 68 | 1011.4 |
| 20260502160119 | 17 | 286 | 0.0 | 0.0 | 0.00 | 0.00 | 0.00 | 71 | 1011.5 |
| 20260502152034 | 17 | 29 | 1.6 | 1.6 | 0.00 | 0.00 | 0.00 | 72 | 1011.4 |
| 20260502151531 | 16 | 238 | 3.2 | 6.4 | 0.00 | 0.00 | 0.00 | 73 | 1011.1 |
| 20260502151028 | 16 | 34 | 0.0 | 0.0 | 0.00 | 0.00 | 0.00 | 73 | 1011.2 |
| 20260502150526 | 16 | 260 | 3.2 | 3.2 | 0.00 | 0.00 | 0.00 | 75 | 1011.3 |
| 20260502130410 | 14 | 253 | 0.0 | 0.0 | 0.00 | 0.00 | 0.00 | 83 | 1009.8 |
| 20260502123353 | 13 | 306 | 0.0 | 1.6 | 0.00 | 0.00 | 0.00 | 85 | 1009.5 |
| 20260502122850 | 14 | 309 | 0.0 | 0.0 | 0.00 | 0.00 | 0.00 | 84 | 1009.1 |
| 20260502122346 | 13 | 309 | 0.0 | 0.0 | 0.00 | 0.00 | 0.00 | 84 | 1009.5 |
| 20260502121845 | 13 | 309 | 0.0 | 0.0 | 0.00 | 0.00 | 0.00 | 84 | 1009.3 |
| 20260502121341 | 14 | 309 | 0.0 | 0.0 | 0.00 | 0.00 | 0.00 | 84 | 1009.3 |
| 20260502120839 | 14 | 309 | 0.0 | 0.0 | 0.00 | 0.00 | 0.00 | 84 | 1009.2 |
| 20260502120335 | 14 | 307 | 0.0 | 0.0 | 0.00 | 0.00 | 0.00 | 83 | 1009.3 |
| 20260502115832 | 14 | 22 | 0.0 | 0.0 | 0.00 | 0.00 | 0.00 | 83 | 1009.4 |
| 20260502115329 | 14 | 21 | 0.0 | 0.0 | 0.00 | 0.00 | 0.00 | 83 | 1009.3 |
| 20260502114826 | 14 | 21 | 0.0 | 0.0 | 0.00 | 0.00 | 0.00 | 82 | 1009.2 |
| 20260502114323 | 14 | 21 | 0.0 | 0.0 | 0.00 | 0.00 | 0.00 | 82 | 1009.2 |
| 20260502113820 | 14 | 21 | 0.0 | 0.0 | 0.00 | 0.00 | 0.00 | 82 | 1009.3 |
| 20260502113317 | 14 | 19 | 0.0 | 0.0 | 0.00 | 0.00 | 0.00 | 82 | 1009.5 |
| 20260502112816 | 14 | 26 | 0.0 | 0.0 | 0.00 | 0.00 | 0.00 | 82 | 1009.4 |
| 20260502112313 | 15 | 28 | 0.0 | 1.6 | 0.00 | 0.00 | 0.00 | 82 | 1009.3 |
| 20260502111810 | 15 | 13 | 0.0 | 0.0 | 0.00 | 0.00 | 0.00 | 81 | 1009.2 |
| 20260502111307 | 15 | 13 | 0.0 | 0.0 | 0.00 | 0.00 | 0.00 | 81 | 1009.2 |
| 20260502110805 | 15 | 17 | 0.0 | 0.0 | 0.00 | 0.00 | 0.00 | 81 | 1009.4 |
| 20260502110303 | 15 | 331 | 0.0 | 0.0 | 0.00 | 0.00 | 0.00 | 81 | 1009.5 |
| 20260502105800 | 15 | 13 | 1.6 | 1.6 | 0.00 | 0.00 | 0.00 | 81 | 1009.5 |
| 20260502105256 | 15 | 38 | 0.0 | 0.0 | 0.00 | 0.00 | 0.00 | 81 | 1009.5 |
| 20260502104754 | 15 | 38 | 0.0 | 0.0 | 0.00 | 0.00 | 0.00 | 81 | 1009.5 |
| 20260502104251 | 15 | 40 | 1.6 | 1.6 | 0.00 | 0.00 | 0.00 | 81 | 1009.6 |
| 20260502103749 | 15 | 26 | 0.0 | 0.0 | 0.00 | 0.00 | 0.00 | 80 | 1009.5 |
| 20260502103246 | 15 | 26 | 0.0 | 0.0 | 0.00 | 0.00 | 0.00 | 80 | 1009.5 |
| 20260502102743 | 15 | 9 | 0.0 | 1.6 | 0.00 | 0.00 | 0.00 | 80 | 1009.7 |
| 20260502102239 | 15 | 25 | 1.6 | 1.6 | 0.00 | 0.00 | 0.00 | 80 | 1009.5 |
| 20260502101738 | 15 | 31 | 1.6 | 1.6 | 0.00 | 0.00 | 0.00 | 80 | 1009.8 |
| 20260502101235 | 15 | 47 | 1.6 | 1.6 | 0.00 | 0.00 | 0.00 | 80 | 1009.7 |
| 20260502100733 | 15 | 28 | 0.0 | 1.6 | 0.00 | 0.00 | 0.00 | 81 | 1009.7 |
| 20260502100232 | 15 | 29 | 1.6 | 1.6 | 0.00 | 0.00 | 0.00 | 81 | 1009.8 |
| 20260502091206 | 16 | 278 | 0.0 | 1.6 | 0.00 | 0.00 | 0.00 | 78 | 1010.3 |
| 20260502090703 | 16 | 27 | 0.0 | 0.0 | 0.00 | 0.00 | 0.00 | 78 | 1010.2 |
| 20260502090200 | 16 | 277 | 0.0 | 0.0 | 0.00 | 0.00 | 0.00 | 77 | 1010.4 |
| 20260502071055 | 19 | 256 | 3.2 | 6.4 | 0.00 | 0.00 | 0.00 | 70 | 1010.5 |
| 20260502070553 | 18 | 273 | 1.6 | 1.6 | 0.00 | 0.00 | 0.00 | 72 | 1010.4 |
| 20260502070051 | 18 | 359 | 0.0 | 0.0 | 0.00 | 0.00 | 0.00 | 73 | 1010.4 |
| 20260502065550 | 18 | 281 | 0.0 | 0.0 | 0.00 | 0.00 | 0.00 | 73 | 1010.3 |
| 20260502065047 | 18 | 281 | 0.0 | 0.0 | 0.00 | 0.00 | 0.00 | 72 | 1010.4 |
| 20260502064545 | 18 | 265 | 3.2 | 3.2 | 0.00 | 0.00 | 0.00 | 72 | 1010.3 |
| 20260502064042 | 18 | 252 | 0.0 | 1.6 | 0.00 | 0.00 | 0.00 | 72 | 1010.3 |
| 20260502063540 | 18 | 257 | 0.0 | 0.0 | 0.00 | 0.00 | 0.00 | 72 | 1010.5 |
| 20260502063037 | 18 | 210 | 1.6 | 1.6 | 0.00 | 0.00 | 0.00 | 72 | 1010.5 |
| 20260502062534 | 19 | 221 | 0.0 | 0.0 | 0.00 | 0.00 | 0.00 | 71 | 1010.0 |
| 20260502062032 | 19 | 254 | 1.6 | 1.6 | 0.00 | 0.00 | 0.00 | 70 | 1010.1 |
| 20260502061530 | 19 | 209 | 0.0 | 0.0 | 0.00 | 0.00 | 0.00 | 70 | 1010.3 |
| 20260502061027 | 19 | 59 | 0.0 | 0.0 | 0.00 | 0.00 | 0.00 | 69 | 1010.2 |
| 20260502060522 | 19 | 336 | 0.0 | 0.0 | 0.00 | 0.00 | 0.00 | 69 | 1010.3 |
| 20260502060019 | 19 | 21 | 0.0 | 0.0 | 0.00 | 0.00 | 0.00 | 68 | 1010.2 |
| 20260502055516 | 19 | 278 | 0.0 | 0.0 | 0.00 | 0.00 | 0.00 | 68 | 1010.0 |
| 20260502055015 | 19 | 122 | 0.0 | 1.6 | 0.00 | 0.00 | 0.00 | 68 | 1010.0 |
| 20260502054513 | 19 | 117 | 0.0 | 0.0 | 0.00 | 0.00 | 0.00 | 67 | 1010.1 |
| 20260502054010 | 19 | 143 | 0.0 | 0.0 | 0.00 | 0.00 | 0.00 | 66 | 1010.1 |
| 20260502053507 | 20 | 144 | 0.0 | 0.0 | 0.00 | 0.00 | 0.00 | 66 | 1010.1 |
| 20260502053005 | 20 | 142 | 0.0 | 0.0 | 0.00 | 0.00 | 0.00 | 64 | 1010.0 |
| 20260502052503 | 20 | 69 | 0.0 | 0.0 | 0.00 | 0.00 | 0.00 | 63 | 1010.1 |
| 20260502052001 | 20 | 265 | 0.0 | 0.0 | 0.00 | 0.00 | 0.00 | 62 | 1010.1 |
| 20260502051459 | 20 | 256 | 1.6 | 1.6 | 0.00 | 0.00 | 0.00 | 61 | 1009.9 |
| 20260502050955 | 20 | 239 | 1.6 | 1.6 | 0.00 | 0.00 | 0.00 | 61 | 1009.9 |
| 20260502050452 | 20 | 158 | 0.0 | 1.6 | 0.00 | 0.00 | 0.00 | 61 | 1010.0 |
| 20260502045949 | 20 | 121 | 0.0 | 1.6 | 0.00 | 0.00 | 0.00 | 60 | 1009.9 |
| 20260502045446 | 20 | 231 | 0.0 | 0.0 | 0.00 | 0.00 | 0.00 | 61 | 1010.0 |
| 20260502044943 | 21 | 248 | 0.0 | 0.0 | 0.00 | 0.00 | 0.00 | 60 | 1009.7 |
| 20260502044439 | 21 | 247 | 0.0 | 0.0 | 0.00 | 0.00 | 0.00 | 59 | 1009.8 |
| 20260502043936 | 21 | 247 | 0.0 | 0.0 | 0.00 | 0.00 | 0.00 | 58 | 1009.9 |
| 20260502043434 | 21 | 247 | 0.0 | 1.6 | 0.00 | 0.00 | 0.00 | 58 | 1010.0 |
| 20260502042933 | 21 | 247 | 0.0 | 0.0 | 0.00 | 0.00 | 0.00 | 57 | 1009.9 |
| 20260502042430 | 21 | 246 | 0.0 | 0.0 | 0.00 | 0.00 | 0.00 | 56 | 1009.6 |
| 20260502041927 | 21 | 250 | 0.0 | 0.0 | 0.00 | 0.00 | 0.00 | 56 | 1009.6 |
| 20260502041425 | 21 | 255 | 0.0 | 0.0 | 0.00 | 0.00 | 0.00 | 56 | 1009.4 |
| 20260502040922 | 22 | 254 | 0.0 | 0.0 | 0.00 | 0.00 | 0.00 | 55 | 1009.6 |
| 20260502040418 | 22 | 261 | 1.6 | 1.6 | 0.00 | 0.00 | 0.00 | 55 | 1009.5 |
| 20260502035915 | 22 | 263 | 0.0 | 1.6 | 0.00 | 0.00 | 0.00 | 55 | 1009.3 |
| 20260502035411 | 22 | 240 | 0.0 | 1.6 | 0.00 | 0.00 | 0.00 | 56 | 1009.4 |
| 20260502034909 | 22 | 245 | 0.0 | 0.0 | 0.00 | 0.00 | 0.00 | 55 | 1009.3 |
| 20260502034408 | 22 | 245 | 0.0 | 0.0 | 0.00 | 0.00 | 0.00 | 54 | 1009.5 |
| 20260502033906 | 22 | 245 | 0.0 | 0.0 | 0.00 | 0.00 | 0.00 | 53 | 1009.2 |
| 20260502033403 | 22 | 245 | 0.0 | 0.0 | 0.00 | 0.00 | 0.00 | 53 | 1009.1 |
| 20260502032859 | 23 | 245 | 0.0 | 0.0 | 0.00 | 0.00 | 0.00 | 53 | 1009.3 |
| 20260502032355 | 23 | 245 | 1.6 | 1.6 | 0.00 | 0.00 | 0.00 | 53 | 1009.0 |
| 20260502031853 | 23 | 246 | 0.0 | 0.0 | 0.00 | 0.00 | 0.00 | 51 | 1008.9 |
| 20260502031351 | 23 | 245 | 0.0 | 0.0 | 0.00 | 0.00 | 0.00 | 50 | 1009.0 |
| 20260502030849 | 24 | 247 | 0.0 | 0.0 | 0.00 | 0.00 | 0.00 | 49 | 1008.8 |
| 20260502030347 | 24 | 247 | 3.2 | 3.2 | 0.00 | 0.00 | 0.00 | 48 | 1008.9 |
| 20260502025844 | 25 | 257 | 1.6 | 1.6 | 0.00 | 0.00 | 0.00 | 46 | 1008.8 |
| 20260502025342 | 25 | 257 | 0.0 | 0.0 | 0.00 | 0.00 | 0.00 | 46 | 1008.9 |
| 20260502024839 | 25 | 257 | 0.0 | 0.0 | 0.00 | 0.00 | 0.00 | 45 | 1008.9 |
| 20260502024337 | 25 | 257 | 0.0 | 0.0 | 0.00 | 0.00 | 0.00 | 43 | 1009.0 |
| 20260502023835 | 26 | 256 | 0.0 | 0.0 | 0.00 | 0.00 | 0.00 | 42 | 1008.8 |
| 20260502023332 | 26 | 253 | 0.0 | 0.0 | 0.00 | 0.00 | 0.00 | 42 | 1009.0 |
| 20260502022830 | 26 | 250 | 0.0 | 0.0 | 0.00 | 0.00 | 0.00 | 41 | 1008.9 |
| 20260502022326 | 27 | 248 | 0.0 | 0.0 | 0.00 | 0.00 | 0.00 | 40 | 1008.8 |
| 20260502021823 | 27 | 248 | 0.0 | 0.0 | 0.00 | 0.00 | 0.00 | 39 | 1008.8 |
| 20260502021320 | 27 | 306 | 0.0 | 0.0 | 0.00 | 0.00 | 0.00 | 37 | 1008.8 |
| 20260502020818 | 28 | 282 | 0.0 | 0.0 | 0.00 | 0.00 | 0.00 | 35 | 1008.9 |
| 20260502020315 | 28 | 291 | 0.0 | 0.0 | 0.00 | 0.00 | 0.00 | 34 | 1008.8 |
| 20260502015812 | 28 | 236 | 1.6 | 1.6 | 0.00 | 0.00 | 0.00 | 33 | 1008.9 |
| 20260502015309 | 28 | 265 | 1.6 | 1.6 | 0.00 | 0.00 | 0.00 | 32 | 1008.9 |
| 20260502014806 | 29 | 224 | 3.2 | 3.2 | 0.00 | 0.00 | 0.00 | 31 | 1008.7 |
| 20260502014303 | 29 | 228 | 0.0 | 1.6 | 0.00 | 0.00 | 0.00 | 31 | 1008.8 |
| 20260502013759 | 29 | 213 | 1.6 | 1.6 | 0.00 | 0.00 | 0.00 | 33 | 1008.8 |
| 20260502013255 | 29 | 255 | 3.2 | 3.2 | 0.00 | 0.00 | 0.00 | 32 | 1008.9 |
| 20260502012751 | 30 | 240 | 3.2 | 6.4 | 0.00 | 0.00 | 0.00 | 31 | 1008.7 |
| 20260502012249 | 30 | 238 | 0.0 | 1.6 | 0.00 | 0.00 | 0.00 | 32 | 1009.0 |
| 20260502011747 | 30 | 40 | 0.0 | 0.0 | 0.00 | 0.00 | 0.00 | 30 | 1008.9 |
| 20260502011242 | 30 | 17 | 0.0 | 1.6 | 0.00 | 0.00 | 0.00 | 29 | 1008.8 |
| 20260502010740 | 30 | 132 | 0.0 | 0.0 | 0.00 | 0.00 | 0.00 | 27 | 1008.7 |
| 20260502010236 | 30 | 160 | 0.0 | 0.0 | 0.00 | 0.00 | 0.00 | 31 | 1008.9 |
| 20260502005733 | 30 | 237 | 1.6 | 1.6 | 0.00 | 0.00 | 0.00 | 30 | 1008.9 |
| 20260502005231 | 30 | 239 | 3.2 | 3.2 | 0.00 | 0.00 | 0.00 | 27 | 1008.9 |
| 20260502004728 | 30 | 348 | 0.0 | 1.6 | 0.00 | 0.00 | 0.00 | 26 | 1008.9 |
| 20260502004224 | 30 | 277 | 0.0 | 1.6 | 0.00 | 0.00 | 0.00 | 28 | 1009.0 |
| 20260502003722 | 30 | 95 | 1.6 | 1.6 | 0.00 | 0.00 | 0.00 | 27 | 1008.9 |
| 20260502003219 | 30 | 259 | 6.4 | 8.0 | 0.00 | 0.00 | 0.00 | 26 | 1009.0 |
| 20260502002714 | 30 | 17 | 1.6 | 3.2 | 0.00 | 0.00 | 0.00 | 29 | 1008.9 |
| 20260502002213 | 30 | 251 | 3.2 | 3.2 | 0.00 | 0.00 | 0.00 | 28 | 1009.0 |
| 20260502001709 | 30 | 269 | 3.2 | 3.2 | 0.00 | 0.00 | 0.00 | 26 | 1008.9 |
| 20260502001208 | 30 | 267 | 4.8 | 6.4 | 0.00 | 0.00 | 0.00 | 28 | 1009.0 |
| 20260502000705 | 30 | 244 | 4.8 | 8.0 | 0.00 | 0.00 | 0.00 | 30 | 1009.1 |
| 20260502000204 | 31 | 273 | 6.4 | 8.0 | 0.00 | 0.00 | 0.00 | 29 | 1009.1 |
| 20260501235658 | 31 | 249 | 3.2 | 3.2 | 0.00 | 0.00 | 0.00 | 29 | 1009.1 |
| 20260501235154 | 31 | 348 | 1.6 | 1.6 | 0.00 | 0.00 | 0.00 | 30 | 1009.1 |
| 20260501234650 | 31 | 274 | 0.0 | 1.6 | 0.00 | 0.00 | 0.00 | 28 | 1009.1 |
| 20260501234147 | 30 | 61 | 0.0 | 3.2 | 0.00 | 0.00 | 0.00 | 28 | 1009.3 |
| 20260501233645 | 30 | 237 | 3.2 | 6.4 | 0.00 | 0.00 | 0.00 | 30 | 1009.4 |
| 20260501233142 | 30 | 266 | 6.4 | 8.0 | 0.00 | 0.00 | 0.00 | 30 | 1009.3 |
| 20260501232638 | 30 | 254 | 4.8 | 6.4 | 0.00 | 0.00 | 0.00 | 31 | 1009.4 |
| 20260501232136 | 30 | 277 | 6.4 | 9.7 | 0.00 | 0.00 | 0.00 | 32 | 1009.7 |
| 20260501231633 | 30 | 22 | 0.0 | 1.6 | 0.00 | 0.00 | 0.00 | 31 | 1009.4 |
| 20260501231131 | 30 | 276 | 1.6 | 3.2 | 0.00 | 0.00 | 0.00 | 31 | 1009.7 |
| 20260501230630 | 30 | 255 | 4.8 | 6.4 | 0.00 | 0.00 | 0.00 | 31 | 1009.4 |
| 20260501230127 | 30 | 264 | 8.0 | 9.7 | 0.00 | 0.00 | 0.00 | 30 | 1009.5 |
| 20260501225625 | 30 | 249 | 8.0 | 11.3 | 0.00 | 0.00 | 0.00 | 31 | 1009.5 |
| 20260501225121 | 30 | 269 | 4.8 | 8.0 | 0.00 | 0.00 | 0.00 | 32 | 1009.8 |
| 20260501224618 | 30 | 262 | 4.8 | 6.4 | 0.00 | 0.00 | 0.00 | 33 | 1009.9 |
| 20260501224115 | 30 | 255 | 4.8 | 6.4 | 0.00 | 0.00 | 0.00 | 32 | 1010.1 |
| 20260501223611 | 30 | 258 | 4.8 | 6.4 | 0.00 | 0.00 | 0.00 | 32 | 1010.0 |
| 20260501223108 | 30 | 298 | 1.6 | 3.2 | 0.00 | 0.00 | 0.00 | 32 | 1010.2 |
| 20260501222604 | 31 | 341 | 0.0 | 1.6 | 0.00 | 0.00 | 0.00 | 32 | 1010.1 |
| 20260501222101 | 30 | 288 | 4.8 | 6.4 | 0.00 | 0.00 | 0.00 | 32 | 1010.3 |
| 20260501221558 | 30 | 261 | 1.6 | 1.6 | 0.00 | 0.00 | 0.00 | 32 | 1010.2 |
| 20260501221055 | 30 | 251 | 1.6 | 1.6 | 0.00 | 0.00 | 0.00 | 33 | 1010.5 |
| 20260501220553 | 30 | 74 | 3.2 | 3.2 | 0.00 | 0.00 | 0.00 | 32 | 1010.6 |
| 20260501220050 | 30 | 256 | 4.8 | 6.4 | 0.00 | 0.00 | 0.00 | 32 | 1010.6 |
| 20260501215546 | 30 | 56 | 1.6 | 1.6 | 0.00 | 0.00 | 0.00 | 32 | 1010.6 |
| 20260501215041 | 30 | 231 | 3.2 | 3.2 | 0.00 | 0.00 | 0.00 | 34 | 1010.4 |
| 20260501214537 | 30 | 267 | 4.8 | 8.0 | 0.00 | 0.00 | 0.00 | 34 | 1010.9 |
| 20260501214033 | 29 | 43 | 4.8 | 6.4 | 0.00 | 0.00 | 0.00 | 34 | 1011.0 |
| 20260501213530 | 29 | 303 | 0.0 | 1.6 | 0.00 | 0.00 | 0.00 | 35 | 1011.0 |
| 20260501213026 | 29 | 321 | 3.2 | 3.2 | 0.00 | 0.00 | 0.00 | 34 | 1011.1 |
| 20260501212522 | 29 | 257 | 4.8 | 6.4 | 0.00 | 0.00 | 0.00 | 34 | 1011.0 |
| 20260501212020 | 30 | 322 | 1.6 | 1.6 | 0.00 | 0.00 | 0.00 | 34 | 1011.2 |
| 20260501211516 | 30 | 30 | 1.6 | 1.6 | 0.00 | 0.00 | 0.00 | 33 | 1011.0 |
| 20260501211014 | 29 | 320 | 1.6 | 1.6 | 0.00 | 0.00 | 0.00 | 34 | 1011.1 |
| 20260501210510 | 28 | 235 | 4.8 | 6.4 | 0.00 | 0.00 | 0.00 | 35 | 1011.1 |
| 20260501210007 | 28 | 301 | 1.6 | 3.2 | 0.00 | 0.00 | 0.00 | 33 | 1011.1 |
| 20260501205504 | 28 | 267 | 1.6 | 1.6 | 0.00 | 0.00 | 0.00 | 36 | 1011.2 |
| 20260501205002 | 28 | 229 | 3.2 | 6.4 | 0.00 | 0.00 | 0.00 | 35 | 1011.3 |
| 20260501204457 | 28 | 253 | 8.0 | 9.7 | 0.00 | 0.00 | 0.00 | 36 | 1011.3 |
| 20260501203954 | 27 | 263 | 3.2 | 3.2 | 0.00 | 0.00 | 0.00 | 38 | 1011.3 |
| 20260501203450 | 28 | 242 | 4.8 | 8.0 | 0.00 | 0.00 | 0.00 | 37 | 1011.5 |
| 20260501202948 | 27 | 320 | 1.6 | 1.6 | 0.00 | 0.00 | 0.00 | 38 | 1011.5 |
| 20260501202444 | 27 | 241 | 3.2 | 3.2 | 0.00 | 0.00 | 0.00 | 39 | 1011.5 |
| 20260501201941 | 27 | 322 | 1.6 | 1.6 | 0.00 | 0.00 | 0.00 | 40 | 1011.6 |
| 20260501201438 | 27 | 247 | 3.2 | 3.2 | 0.00 | 0.00 | 0.00 | 39 | 1011.5 |
| 20260501200935 | 28 | 328 | 1.6 | 3.2 | 0.00 | 0.00 | 0.00 | 40 | 1011.8 |
| 20260501200432 | 27 | 56 | 3.2 | 3.2 | 0.00 | 0.00 | 0.00 | 39 | 1011.8 |
| 20260501195929 | 27 | 214 | 4.8 | 6.4 | 0.00 | 0.00 | 0.00 | 41 | 1012.0 |
| 20260501195426 | 27 | 255 | 4.8 | 6.4 | 0.00 | 0.00 | 0.00 | 41 | 1012.0 |
| 20260501194921 | 27 | 33 | 1.6 | 3.2 | 0.00 | 0.00 | 0.00 | 41 | 1012.0 |
| 20260501194417 | 26 | 227 | 1.6 | 3.2 | 0.00 | 0.00 | 0.00 | 43 | 1012.1 |
| 20260501193913 | 26 | 283 | 6.4 | 6.4 | 0.00 | 0.00 | 0.00 | 44 | 1012.0 |
| 20260501193412 | 26 | 12 | 0.0 | 1.6 | 0.00 | 0.00 | 0.00 | 42 | 1012.4 |
| 20260501192909 | 26 | 14 | 1.6 | 1.6 | 0.00 | 0.00 | 0.00 | 43 | 1012.3 |
| 20260501192406 | 26 | 251 | 3.2 | 3.2 | 0.00 | 0.00 | 0.00 | 44 | 1012.3 |
| 20260501191903 | 26 | 259 | 6.4 | 8.0 | 0.00 | 0.00 | 0.00 | 44 | 1012.4 |
| 20260501191401 | 26 | 262 | 3.2 | 3.2 | 0.00 | 0.00 | 0.00 | 46 | 1012.6 |
| 20260501190858 | 25 | 227 | 3.2 | 6.4 | 0.00 | 0.00 | 0.00 | 46 | 1012.5 |
| 20260501190353 | 26 | 33 | 1.6 | 1.6 | 0.00 | 0.00 | 0.00 | 45 | 1012.6 |
| 20260501185848 | 25 | 248 | 4.8 | 6.4 | 0.00 | 0.00 | 0.00 | 46 | 1012.9 |
| 20260501185345 | 25 | 246 | 3.2 | 3.2 | 0.00 | 0.00 | 0.00 | 48 | 1012.8 |
| 20260501184841 | 25 | 244 | 1.6 | 1.6 | 0.00 | 0.00 | 0.00 | 47 | 1012.9 |
| 20260501184337 | 25 | 11 | 1.6 | 1.6 | 0.00 | 0.00 | 0.00 | 48 | 1012.9 |
| 20260501183832 | 24 | 342 | 1.6 | 3.2 | 0.00 | 0.00 | 0.00 | 48 | 1013.0 |
| 20260501183330 | 24 | 281 | 4.8 | 6.4 | 0.00 | 0.00 | 0.00 | 49 | 1012.9 |
| 20260501182826 | 23 | 273 | 1.6 | 1.6 | 0.00 | 0.00 | 0.00 | 51 | 1013.0 |
| 20260501182324 | 24 | 274 | 6.4 | 8.0 | 0.00 | 0.00 | 0.00 | 51 | 1013.0 |
| 20260501181820 | 24 | 259 | 4.8 | 6.4 | 0.00 | 0.00 | 0.00 | 50 | 1013.1 |
| 20260501181317 | 23 | 262 | 3.2 | 3.2 | 0.00 | 0.00 | 0.00 | 51 | 1013.0 |
| 20260501180814 | 23 | 286 | 3.2 | 3.2 | 0.00 | 0.00 | 0.00 | 52 | 1013.3 |
| 20260501180310 | 23 | 272 | 0.0 | 3.2 | 0.00 | 0.00 | 0.00 | 51 | 1013.2 |
| 20260501175808 | 23 | 265 | 4.8 | 6.4 | 0.00 | 0.00 | 0.00 | 52 | 1013.2 |
| 20260501175306 | 23 | 255 | 4.8 | 6.4 | 0.00 | 0.00 | 0.00 | 51 | 1013.2 |
| 20260501174801 | 23 | 275 | 1.6 | 3.2 | 0.00 | 0.00 | 0.00 | 51 | 1013.2 |
| 20260501174259 | 22 | 305 | 3.2 | 3.2 | 0.00 | 0.00 | 0.00 | 53 | 1013.3 |
| 20260501173756 | 22 | 254 | 3.2 | 3.2 | 0.00 | 0.00 | 0.00 | 53 | 1013.2 |
| 20260501173254 | 22 | 17 | 3.2 | 3.2 | 0.00 | 0.00 | 0.00 | 53 | 1013.2 |
| 20260501172749 | 22 | 271 | 4.8 | 6.4 | 0.00 | 0.00 | 0.00 | 54 | 1013.4 |
| 20260501172245 | 22 | 333 | 3.2 | 6.4 | 0.00 | 0.00 | 0.00 | 56 | 1013.5 |
| 20260501171740 | 21 | 257 | 0.0 | 1.6 | 0.00 | 0.00 | 0.00 | 57 | 1013.3 |